Flag for Canada Weather past 2 weeks in Rae-Edzo, Northwest Territories, Canada

Now
31 °F

Chilly.


Feels Like: 31 °F
Forecast: 39 / 57 °F
Wind: 2 mph from East

Location: Lac La Martre

Current Time: May 26, 2015 at 4:10:49 AM

Latest Report: May 26, 2015 at 3:00 AM


Visibility: N/A

Pressure: 30.10 "Hg

Humidity: 90%

Dew point: 28 °F

Location of Rae-EdzoLocation

Historic Weather in Rae-Edzo — Graph

°F

Rae-Edzo temperature yesterday

Maximum temperature yesterday: 60 °F (at 5:00 PM)
Minimum temperature yesterday: 50 °F (at 8:00 AM)
Average temperature yesterday: 56 °F

Past Weeks' High & Low Weather Summary

 TemperatureHumidityPressure
High81 °F (May 20, 5:00 PM)91% (May 15, 5:00 AM)30.53 "Hg (May 15, 5:00 AM)
Low18 °F (May 16, 5:00 AM)13% (May 12, 5:00 PM)29.66 "Hg (May 14, 5:00 PM)
Average57 °F41%30.08 "Hg
* Reported May 11 2:00 AM — May 26 2:00 AM, Rae-Edzo, Weather by CustomWeather, © 2015

Note: Actual official high and low records may vary slightly from our data, if they occured in-between our weather recording intervals... More about our weather records

Advertising

Rae-Edzo weather history for previous 24 hours

 ConditionsComfort  
Time TempWeatherWind HumidityBarometerVisibility
2:00 AM
Tue, May 26
33 °FChilly.1 mph81%30.09 "HgN/A
1:00 AM35 °FChilly.3 mph75%30.09 "HgN/A
12:00 AM40 °FChilly.3 mph63%30.09 "HgN/A
11:00 PM
Mon, May 25
51 °FCool.3 mph40%30.08 "HgN/A
10:00 PM56 °FRefreshingly cool.5 mph31%30.06 "HgN/A
9:00 PM54 °FCool.3 mph37%30.06 "HgN/A
8:00 PM57 °FRefreshingly cool.8 mph30%30.06 "HgN/A
7:00 PM59 °FRefreshingly cool.8 mph29%30.06 "HgN/A
6:00 PM58 °FRefreshingly cool.9 mph31%30.07 "HgN/A
5:00 PM60 °FRefreshingly cool.5 mph25%30.07 "HgN/A
4:00 PM59 °FRefreshingly cool.6 mph23%30.07 "HgN/A
3:00 PM59 °FRefreshingly cool.9 mph24%30.07 "HgN/A
2:00 PM58 °FRefreshingly cool.7 mph24%30.07 "HgN/A
1:00 PM57 °FRefreshingly cool.7 mph29%30.06 "HgN/A
12:00 PM57 °FRefreshingly cool.9 mph30%30.04 "HgN/A
10:00 AM53 °FCool.10 mph39%30.00 "HgN/A
9:00 AM51 °FCool.10 mph45%29.99 "HgN/A
8:00 AM50 °FCool.10 mph52%29.97 "HgN/A
Weather by CustomWeather, © 2015

See weather overviewHow to use our weather pages